Tracking 17884 objects as of 2-December-2016
HD Live streaming from Space Station
objects crossing your sky now

COSMOS 2251 DEB

Track COSMOS 2251 DEB now!
10-day predictions


NORAD ID: 37326
Int'l Code: 1993-036BKS
Perigee: 681.5 km
Apogee: 780.0 km
Inclination: 74.0 °
Period: 99.3 minutes
Semi major axis: 7101 km
RCS: 0.0127 m2 (small)
Launch date: June 16, 1993
Source: Commonwealth of Independent States (former USSR) (CIS)
Launch site: PLESETSK MISSILE AND SPACE COMPLEX (PKMTR)

Note: This is SATELLITE DEBRIS
Your satellite tracking list
Your tracking list is empty





NASA's NSSDC Master Catalog

Two Line Element Set (TLE):
1 37326U 93036BKS 16334.02272175  .00000375  00000-0  10005-3 0  9999
2 37326  74.0294  87.7377 0069336 315.7986  43.7646 14.50619041377327
Source of the keplerian elements: AFSPC